Regional Weather Roundup
Issued by NWS Albany, NY

Home | Current Version | Previous Version | Graphics & Text | Print | Product List | Glossary Off
Versions: 1 2 3 4 5 6 7 8 9 10 11 12 13 14 15 16 17 18 19 20 21 22 23 24 25 26 27 28 29 30 31 32 33 34 35 36 37 38 39 40 41 42 43 44 45 46 47 48 49 50

000
ASUS41 KALY 280910
RWRALY

NEW YORK STATE HOURLY WEATHER ROUNDUP
NATIONAL WEATHER SERVICE ALBANY NY
500 AM EDT TUE APR 28 2015

NOTE: "FAIR" INDICATES FEW OR NO CLOUDS BELOW 12,000 FEET WITH NO
SIGNIFICANT WEATHER AND/OR NO OBSTRUCTIONS TO VISIBILITY.

NYZ032-033-038>043-046>054-057>066-NYZ062>081-281000-
EAST


CITY           SKY/WX    TMP DP  RH WIND       PRES   REMARKS
ALBANY         PTCLDY    43  37  79 N6        29.79R
GLENS FALLS    CLEAR     45  35  68 N12       29.79R
POUGHKEEPSIE   CLEAR     49  37  63 N10       29.75R
NEWBURGH       PTCLDY    48  39  71 NE12      29.76R
MONTGOMERY     MOCLDY    48  37  65 N3        29.75R
WHITE PLAINS   CLEAR     48  37  65 N17       29.72R
ISLIP          PTCLDY    48  40  73 NW13G22   29.70R
NEW YORK CITY  PTCLDY    51  37  58 N15G23    29.73R
CENTRAL PARK   CLEAR     51  36  56 N8        29.76R
$$

NYZ005>009-017-018-044>046-055-056-281000-
CENTRAL


CITY           SKY/WX    TMP DP  RH WIND       PRES   REMARKS
FULTON         MOCLDY    42  36  79 NW8       29.90R
SYRACUSE       CLOUDY    44  38  79 W7        29.89R
ROME           CLOUDY    36  35  96 NW5       29.88R WCI  32
ELMIRA         CLOUDY    44  40  85 SW7       29.90S
BINGHAMTON     CLEAR     41  38  89 NW13      29.84R
MONTICELLO     CLEAR     41  37  87 NW7       29.79R
$$

NYZ026>034-041>043-281000-
NORTH


CITY           SKY/WX    TMP DP  RH WIND       PRES   REMARKS
WATERTOWN      CLOUDY    41  39  93 CALM      29.89R
FORT DRUM      NOT AVBL
MASSENA        CLOUDY    47  39  74 CALM      29.90R
SARANAC LAKE   CLEAR     40  33  76 N7        29.83R
PLATTSBURGH      N/A     42  36  79 N10       29.86R
$$

NYZ001>004-010>016-019>021-281000-
WEST


CITY           SKY/WX    TMP DP  RH WIND       PRES   REMARKS
NIAGARA FALLS  PTCLDY    40  34  79 NW9       29.98S WCI  34
BUFFALO        PTCLDY    39  33  79 W5        29.98S
DUNKIRK        CLEAR     34  32  92 SW5       30.02R WCI  30
JAMESTOWN      CLEAR     37  30  75 NW6       29.99R WCI  33
WELLSVILLE     LGT RAIN  38  34  85 NW9       29.95R WCI  31
ROCHESTER      PTCLDY    44  36  73 W8        29.95S
PENN YAN       MOCLDY    44  37  76 W8        29.91S
$$

             KEY
       WCI = WIND CHILL INDEX
       VSB = VISIBILITY
       HX  = HEAT INDEX
$$


USA.gov is the U.S. government's official web portal to all federal, state and local government web resources and services.